Location: Ammerl�gen
(47.2167°N, 9.6000°E)
Time: 19:49:17
(UTC+00:00)

DMSP 5D-2 F13 DEB - Pass Details

Date: 25 October 2021
Orbit: 758 x 780 km, 98.7° (Epoch: 03 December)

Event Time Altitude Azimuth Distance (km) Brightness Sun altitude
Exits shadow 20:32:01 14° 304° (NW) 2,042 ? -42.6°
Drops below altitude 10° 20:33:05 10° 314° (NW) 2,301 ? -42.8°
Sets 20:36:03 0° 332° (NNW) 3,230 ? -43.2°
